QPF
0.00 0.00 0.00 0.00 0.00 0.00 0.00 0.00 0.00 0.00 0.00 0.00 0.00 0.00 0.00 0.00 0.00 0.00 0.00 0.00 0.00 0.00 0.00 0.00 0.00 0.00 0.00 0.00 0.00 0.00 0.00 0.00 0.00 0.00 0.00 0.00 0.00 0.00 0.00 0.00 0.00 0.00 0.00
0.00 0.00 0.00 0.00 0.00 0.00 0.00 0.00 0.00 0.00 0.00 0.00 0.00 0.00 0.00 0.00 0.00 0.00 0.00 0.00 0.00 0.00 0.00 0.00 0.00 0.00 0.00 0.00 0.00 0.00 0.00 0.00 0.00 0.00 0.00 0.00 0.00 0.00 0.00 0.00 0.00 0.00 0.00
0.00 0.00 0.00 0.00 0.00 0.00 0.00 0.00 0.00 0.00 0.00 0.00 0.00 0.00 0.00 0.00 0.00 0.00 0.00 0.00 0.00 0.00 0.00 0.00 0.00 0.00 0.00 0.00 0.00 0.00 0.00 0.00 0.00 0.00 0.00 0.00 0.00 0.00 0.00 0.00 0.00 0.00 0.00
0.00 0.00 0.00 0.00 0.00 0.00 0.00 0.00 0.00 0.00 0.00 0.00 0.00 0.00 0.00 0.00 0.00 0.00 0.00 0.00 0.00 0.00 0.00 0.00 0.00 0.00 0.00 0.00 0.00 0.00 0.00 0.00 0.00 0.00 0.00 0.00 0.00 0.00 0.00 0.00 0.00 0.00 0.00
0.00 0.00 0.00 0.00 0.00 0.00 0.00 0.00 0.00 0.00 0.00 0.00 0.00 0.00 0.00 0.00 0.00 0.00 0.00 0.00 0.00 0.00 0.00 0.00 0.00 0.00 0.00 0.00 0.00 0.00 0.00 0.00 0.00 0.00 0.00 0.00 0.00 0.00 0.00 0.00 0.00 0.00 0.00
0.00 0.00 0.00 0.00 0.00 0.00 0.00 0.00 0.00 0.00 0.00 0.00 0.00 0.00 0.00 0.00 0.00 0.00 0.00 0.00 0.00 0.00 0.00 0.00 0.00 0.00 0.00 0.00 0.00 0.00 0.00 0.00 0.00 0.00 0.00 0.00 0.00 0.00 0.00 0.00 0.00 0.00 0.00
0.00 0.00 0.00 0.00 0.00 0.00 0.00 0.00 0.00 0.00 0.00 0.00 0.00 0.00 0.00 0.00 0.00 0.00 0.00 0.00 0.00 0.00 0.00 0.00 0.00 0.00 0.00 0.00 0.00 0.00 0.00 0.00 0.00 0.00 0.00 0.00 0.00 0.00 0.00 0.00 0.00 0.00 0.00
0.00 0.00 0.00 0.00 0.00 0.00 0.00 0.00 0.00 0.00 0.00 0.00 0.00 0.00 0.00 0.00 0.00 0.00 0.00 0.00 0.00 0.00 0.00 0.00 0.00 0.00 0.00 0.00 0.00 0.00 0.00 0.00 0.00 0.00 0.00 0.00 0.00 0.00 0.00 0.00 0.00 0.00 0.00
0.00 0.00 0.00 0.00 0.00 0.00 0.00 0.00 0.00 0.00 0.00 0.00 0.00 0.00 0.00 0.00 0.00 0.00 0.00 0.00 0.00 0.00 0.00 0.00 0.00 0.00 0.00 0.00 0.00 0.00 0.00 0.00 0.00 0.00 0.00 0.00 0.00 0.00 0.00 0.00 0.00 0.00 0.00
0.00 0.00 0.00 0.00 0.00 0.00 0.00 0.00 0.00 0.00 0.00 0.00 0.00 0.00 0.00 0.00 0.00 0.00 0.00 0.00 0.00 0.00 0.00 0.00 0.00 0.00 0.00 0.00 0.00 0.00 0.00 0.00 0.00 0.00 0.00 0.00 0.00 0.00 0.00 0.00 0.00 0.00 0.00
0.00 0.00 0.00 0.00 0.00 0.00 0.00 0.00 0.00 0.00 0.00 0.00 0.00 0.00 0.00 0.00 0.00 0.00 0.00 0.00 0.00 0.00 0.00 0.00 0.00 0.00 0.00 0.00 0.00 0.00 0.00 0.00 0.00 0.00 0.00 0.00 0.00 0.00 0.00 0.00 0.00 0.00 0.00
0.00 0.00 0.00 0.00 0.00 0.00 0.00 0.00 0.00 0.00 0.00 0.00 0.00 0.00 0.00 0.00 0.00 0.00 0.00 0.00 0.00 0.00 0.00 0.00 0.00 0.00 0.00 0.01 0.00 0.00 0.00 0.00 0.00 0.00 0.00 0.00 0.00 0.00 0.00 0.00 0.00 0.00 0.00
0.00 0.00 0.00 0.00 0.00 0.00 0.00 0.00 0.00 0.00 0.00 0.00 0.00 0.00 0.00 0.00 0.00 0.00 0.00 0.00 0.00 0.00 0.00 0.00 0.00 0.00 0.00 0.00 0.00 0.00 0.00 0.00 0.00 0.00 0.00 0.00 0.00 0.00 0.00 0.00 0.00 0.00 0.00
0.00 0.00 0.00 0.00 0.00 0.00 0.00 0.00 0.00 0.00 0.00 0.00 0.00 0.00 0.00 0.00 0.00 0.00 0.00 0.00 0.00 0.00 0.00 0.00 0.00 0.00 0.00 0.00 0.00 0.00 0.00 0.00 0.00 0.00 0.00 0.00 0.00 0.00 0.00 0.00 0.00 0.00 0.00
0.00 0.00 0.00 0.00 0.00 0.00 0.00 0.00 0.00 0.00 0.00 0.00 0.00 0.00 0.00 0.00 0.00 0.00 0.00 0.00 0.00 0.00 0.00 0.00 0.00 0.00 0.00 0.00 0.00 0.00 0.00 0.00 0.00 0.00 0.00 0.00 0.00 0.00 0.00 0.00 0.00 0.00 0.00
0.00 0.00 0.00 0.00 0.00 0.00 0.00 0.00 0.00 0.00 0.00 0.00 0.00 0.00 0.00 0.00 0.00 0.00 0.00 0.00 0.00 0.00 0.00 0.00 0.00 0.00 0.00 0.00 0.00 0.00 0.00 0.00 0.00 0.00 0.00 0.00 0.00 0.00 0.00 0.00 0.00 0.00 0.00
0.00 0.00 0.00 0.00 0.00 0.00 0.00 0.00 0.00 0.00 0.00 0.00 0.00 0.00 0.00 0.00 0.00 0.00 0.00 0.00 0.00 0.00 0.00 0.00 0.00 0.00 0.00 0.00 0.00 0.00 0.00 0.00 0.00 0.00 0.00 0.00 0.00 0.00 0.00 0.00 0.00 0.00 0.00
0.00 0.00 0.00 0.00 0.00 0.00 0.00 0.00 0.00 0.00 0.00 0.00 0.00 0.00 0.00 0.00 0.00 0.00 0.00 0.00 0.00 0.00 0.00 0.00 0.00 0.00 0.00 0.00 0.00 0.00 0.00 0.00 0.00 0.00 0.00 0.00 0.00 0.00 0.00 0.00 0.00 0.00 0.00
0.00 0.00 0.00 0.00 0.00 0.00 0.00 0.00 0.00 0.00 0.00 0.00 0.00 0.00 0.00 0.00 0.00 0.00 0.00 0.00 0.00 0.00 0.00 0.00 0.00 0.00 0.00 0.00 0.00 0.00 0.00 0.00 0.00 0.00 0.00 0.00 0.00 0.00 0.00 0.00 0.00 0.00 0.00
0.00 0.00 0.00 0.00 0.00 0.00 0.00 0.00 0.00 0.00 0.00 0.00 0.00 0.00 0.00 0.00 0.00 0.00 0.00 0.00 0.00 0.00 0.00 0.00 0.00 0.00 0.00 0.00 0.00 0.00 0.00 0.00 0.00 0.00 0.00 0.00 0.00 0.00 0.00 0.00 0.00 0.00 0.00
0.00 0.00 0.00 0.00 0.00 0.00 0.00 0.00 0.00 0.00 0.00 0.00 0.00 0.00 0.00 0.00 0.00 0.00 0.00 0.00 0.00 0.00 0.00 0.00 0.00 0.00 0.00 0.00 0.00 0.00 0.00 0.00 0.00 0.00 0.00 0.00 0.00 0.00 0.00 0.00 0.00 0.00 0.00
0.00 0.00 0.00 0.00 0.00 0.00 0.00 0.00 0.00 0.00 0.00 0.00 0.00 0.00 0.00 0.00 0.00 0.00 0.00 0.00 0.00 0.00 0.00 0.00 0.00 0.00 0.00 0.00 0.00 0.00 0.00 0.00 0.00 0.00 0.00 0.00 0.00 0.00 0.00 0.00 0.00 0.00 0.00
0.00 0.00 0.00 0.00 0.00 0.00 0.00 0.00 0.00 0.00 0.00 0.00 0.00 0.00 0.00 0.00 0.00 0.00 0.00 0.00 0.00 0.00 0.00 0.00 0.00 0.00 0.00 0.00 0.00 0.00 0.00 0.00 0.00 0.00 0.00 0.00 0.00 0.00 0.00 0.00 0.00 0.00 0.00
0.00 0.00 0.00 0.00 0.00 0.00 0.00 0.00 0.00 0.00 0.00 0.00 0.00 0.00 0.00 0.00 0.00 0.00 0.00 0.00 0.00 0.00 0.00 0.00 0.00 0.00 0.00 0.00 0.00 0.00 0.00 0.00 0.00 0.00 0.00 0.00 0.00 0.00 0.00 0.00 0.00 0.00 0.00
0.00 0.00 0.00 0.00 0.00 0.00 0.00 0.00 0.00 0.00 0.00 0.00 0.00 0.00 0.00 0.00 0.00 0.00 0.00 0.00 0.00 0.00 0.00 0.00 0.00 0.00 0.00 0.00 0.00 0.00 0.00 0.00 0.00 0.00 0.00 0.00 0.00 0.00 0.00 0.00 0.00 0.00 0.00
0.00 0.00 0.00 0.00 0.00 0.00 0.00 0.00 0.00 0.00 0.00 0.00 0.00 0.00 0.00 0.00 0.00 0.00 0.00 0.00 0.00 0.00 0.00 0.00 0.00 0.00 0.00 0.00 0.00 0.00 0.00 0.00 0.00 0.00 0.00 0.00 0.00 0.00 0.00 0.00 0.00 0.00 0.00
MSLP
1020.67 1020.98 1021.48 1022.01 1022.36 1023.25 1023.92 1025.05 1025.55 1026.02 1026.52 1027.03 1027.57 1027.85 1028.01 1028.38 1028.71 1028.91 1029.29 1029.76 1029.91 1029.96 1029.99 1029.93 1029.93 1029.78 1029.75 1029.63 1029.41 1029.11 1028.81 1028.59 1027.54 1026.18 1026.10 1025.38 1024.69 1024.07 1023.39 1022.98 1022.37 1021.61 1020.78
1020.91 1021.30 1021.80 1022.22 1022.93 1023.84 1024.73 1025.38 1025.97 1026.53 1026.88 1027.39 1027.58 1027.84 1028.23 1028.65 1029.04 1029.27 1029.54 1029.72 1029.99 1029.97 1029.97 1029.88 1029.92 1029.84 1029.90 1029.69 1029.47 1029.12 1028.79 1028.63 1028.15 1026.72 1026.25 1025.43 1024.97 1024.11 1023.38 1022.65 1022.06 1021.52 1020.81
1021.26 1021.60 1022.19 1022.75 1023.34 1024.07 1025.15 1025.79 1026.37 1026.87 1027.27 1027.63 1027.69 1027.98 1028.43 1028.76 1029.11 1029.33 1029.51 1029.80 1030.07 1030.08 1030.05 1029.94 1029.99 1029.84 1029.87 1029.81 1029.62 1029.35 1028.96 1028.48 1028.14 1027.41 1026.17 1025.73 1024.86 1024.11 1023.12 1022.60 1022.11 1021.20 1020.58
1021.64 1022.12 1022.65 1023.23 1023.71 1024.42 1025.43 1026.21 1026.78 1027.35 1027.74 1028.00 1028.22 1028.49 1028.52 1028.76 1029.19 1029.47 1029.61 1029.87 1030.07 1030.09 1030.12 1030.16 1030.07 1029.94 1029.96 1029.78 1029.59 1029.19 1028.73 1028.36 1027.91 1027.40 1026.44 1025.65 1025.04 1024.20 1023.87 1022.85 1021.34 1021.39 1020.43
1022.09 1022.63 1023.14 1023.55 1024.25 1024.91 1025.56 1026.32 1026.94 1027.48 1027.98 1028.22 1028.56 1028.76 1028.94 1029.03 1029.12 1029.42 1029.64 1029.79 1030.01 1030.06 1030.14 1029.98 1030.07 1030.01 1029.65 1029.48 1029.05 1028.85 1028.44 1027.87 1027.39 1026.95 1026.35 1025.64 1025.04 1024.36 1023.97 1023.34 1022.82 1021.68 1020.78
1022.50 1023.11 1023.43 1023.73 1024.42 1025.19 1025.75 1026.33 1026.90 1027.67 1027.91 1027.99 1028.28 1028.65 1028.96 1028.90 1028.64 1028.92 1029.32 1029.54 1029.72 1029.67 1029.76 1029.75 1029.75 1029.79 1029.55 1029.05 1028.57 1028.38 1028.14 1027.56 1027.09 1026.69 1026.18 1025.65 1025.03 1024.82 1024.15 1024.11 1023.53 1022.60 1021.01
1022.28 1023.28 1023.73 1024.22 1024.87 1025.51 1025.95 1026.59 1027.42 1027.75 1027.82 1028.10 1028.37 1028.53 1028.69 1028.78 1028.54 1028.79 1028.90 1029.45 1029.70 1029.56 1029.65 1029.59 1029.40 1029.27 1029.06 1028.89 1028.58 1028.19 1027.82 1027.33 1026.78 1026.44 1026.12 1025.79 1025.30 1024.90 1024.80 1024.28 1024.10 1023.71 1022.78
1022.01 1022.89 1023.49 1024.04 1024.67 1025.45 1026.06 1026.71 1027.37 1027.69 1027.84 1028.21 1028.45 1028.49 1028.65 1028.75 1028.60 1028.81 1028.66 1029.17 1029.47 1029.53 1029.46 1029.38 1029.17 1028.94 1028.63 1028.49 1028.10 1027.64 1027.37 1027.08 1026.67 1026.34 1026.02 1025.58 1025.29 1024.97 1024.89 1024.85 1024.88 1024.19 1022.71
1021.81 1022.70 1023.43 1023.91 1024.66 1025.28 1026.06 1026.73 1027.17 1027.51 1027.96 1028.22 1028.32 1028.50 1028.77 1028.78 1028.68 1028.53 1028.61 1029.04 1029.07 1029.14 1029.10 1028.95 1028.74 1028.51 1028.12 1027.66 1027.42 1027.14 1026.76 1026.57 1026.35 1025.78 1025.31 1024.98 1024.95 1024.94 1024.79 1025.30 1025.20 1024.75 1023.61
1020.99 1021.89 1023.03 1023.70 1024.26 1025.07 1025.81 1026.59 1026.96 1027.38 1027.85 1028.20 1028.48 1028.71 1028.74 1028.86 1028.67 1028.49 1028.51 1029.05 1029.02 1028.87 1028.74 1028.39 1028.17 1027.73 1027.31 1026.99 1027.00 1026.67 1026.33 1026.28 1026.07 1025.71 1025.28 1025.15 1025.21 1025.17 1024.92 1025.33 1025.28 1025.06 1024.76
1020.41 1021.62 1022.71 1023.51 1024.25 1024.95 1025.91 1026.51 1026.92 1027.45 1027.86 1028.51 1028.55 1028.80 1028.95 1029.07 1029.14 1028.48 1028.27 1028.48 1028.80 1028.82 1028.43 1027.94 1027.77 1027.22 1026.92 1026.66 1026.46 1026.45 1026.28 1025.79 1025.92 1025.66 1025.50 1025.66 1025.66 1025.36 1025.06 1024.90 1024.84 1024.80 1024.57
1020.22 1021.56 1022.64 1023.60 1024.58 1025.23 1025.97 1026.64 1027.08 1027.66 1028.27 1028.23 1028.65 1028.85 1029.01 1029.19 1028.95 1028.51 1028.00 1027.81 1028.20 1028.29 1027.90 1027.38 1027.20 1026.61 1026.20 1025.96 1025.77 1025.64 1025.46 1025.67 1025.81 1025.77 1025.95 1026.00 1025.67 1025.22 1024.68 1024.61 1024.43 1024.39 1024.25
1020.17 1021.48 1022.73 1023.80 1024.57 1025.32 1026.00 1026.63 1027.24 1027.78 1027.91 1028.23 1028.63 1028.91 1029.10 1029.04 1029.07 1028.51 1028.23 1027.70 1027.60 1027.40 1027.22 1026.83 1026.27 1025.91 1026.02 1025.92 1025.70 1025.35 1025.58 1025.82 1025.71 1025.54 1025.77 1025.67 1025.57 1024.88 1024.57 1024.43 1024.21 1024.03 1023.85
1019.93 1021.39 1022.65 1023.62 1024.63 1025.39 1025.89 1026.44 1027.06 1027.47 1027.63 1028.05 1028.49 1028.73 1028.90 1029.00 1028.77 1028.67 1028.33 1027.96 1027.29 1026.90 1026.91 1026.75 1026.36 1025.84 1025.75 1025.78 1025.75 1025.33 1025.86 1025.74 1025.62 1025.57 1025.53 1025.27 1025.11 1024.84 1024.69 1024.50 1024.31 1024.01 1023.94
1019.68 1021.17 1022.44 1023.41 1024.19 1025.12 1025.81 1026.22 1026.71 1026.92 1026.87 1027.27 1027.75 1028.23 1028.55 1028.47 1028.00 1027.33 1027.08 1026.84 1026.43 1026.43 1026.50 1026.80 1026.45 1026.65 1026.43 1026.24 1025.84 1025.57 1025.73 1025.72 1025.67 1025.50 1025.36 1025.32 1025.04 1024.84 1024.64 1024.50 1024.42 1024.32 1024.35
1019.68 1021.08 1022.10 1023.07 1024.05 1024.81 1025.59 1026.26 1026.55 1026.51 1026.45 1026.53 1026.73 1027.28 1027.61 1027.30 1026.89 1026.54 1026.28 1026.03 1026.01 1026.16 1026.42 1027.33 1027.58 1027.61 1027.36 1026.77 1026.22 1025.83 1025.70 1025.51 1025.45 1025.61 1025.55 1025.39 1025.35 1025.19 1024.95 1024.53 1024.43 1024.62 1024.69
1019.07 1020.56 1021.79 1022.80 1023.66 1024.47 1025.20 1025.82 1026.43 1026.83 1026.62 1026.50 1026.61 1026.81 1026.91 1026.79 1026.51 1026.22 1025.93 1026.14 1026.73 1026.83 1027.86 1028.25 1028.28 1028.16 1027.59 1026.89 1026.34 1026.01 1025.93 1025.57 1025.46 1025.43 1025.54 1025.44 1025.33 1025.14 1024.96 1024.76 1024.62 1024.69 1024.74
1018.92 1020.13 1021.13 1022.15 1023.07 1023.91 1024.73 1025.24 1025.82 1026.19 1026.66 1026.79 1026.90 1026.77 1026.59 1026.53 1026.22 1026.02 1026.42 1027.35 1027.68 1028.08 1028.69 1029.25 1029.05 1028.51 1027.75 1027.04 1026.48 1026.19 1025.84 1025.68 1025.57 1025.55 1025.45 1025.56 1025.57 1025.57 1025.28 1024.93 1024.81 1024.89 1024.90
1019.01 1020.08 1020.86 1021.88 1022.84 1023.70 1024.48 1025.16 1025.68 1026.01 1026.32 1026.61 1026.98 1026.98 1027.23 1026.47 1026.19 1026.75 1027.06 1027.90 1028.92 1029.24 1029.21 1029.25 1028.74 1028.24 1027.79 1027.35 1026.89 1026.51 1026.21 1025.99 1025.87 1025.81 1025.87 1025.77 1025.78 1025.91 1025.64 1025.32 1025.18 1025.14 1025.16
1019.16 1020.02 1020.88 1021.78 1022.79 1023.81 1024.54 1025.20 1025.65 1026.06 1026.41 1026.73 1027.00 1027.21 1027.39 1027.75 1027.60 1027.90 1028.02 1028.45 1029.04 1029.06 1028.97 1028.85 1028.30 1028.06 1027.76 1027.43 1027.18 1026.83 1026.53 1026.29 1026.07 1026.01 1026.10 1026.07 1025.89 1026.01 1025.79 1025.67 1025.59 1025.61 1025.45
1019.23 1020.29 1020.88 1021.88 1022.53 1023.38 1024.08 1024.65 1025.09 1025.63 1026.16 1026.54 1026.66 1026.76 1027.05 1027.45 1027.86 1028.18 1028.33 1028.47 1028.48 1028.29 1028.08 1028.26 1028.10 1028.01 1027.87 1027.49 1027.22 1026.92 1026.75 1026.61 1026.34 1025.94 1026.02 1025.90 1025.81 1025.92 1025.75 1025.71 1025.74 1025.87 1025.99
1019.57 1020.26 1021.08 1021.73 1022.43 1023.21 1023.79 1024.31 1024.84 1025.44 1025.88 1026.25 1026.58 1026.67 1026.55 1026.92 1027.40 1027.85 1028.00 1028.12 1028.22 1027.70 1027.44 1027.50 1027.79 1027.60 1027.63 1027.45 1027.40 1027.25 1026.88 1026.49 1026.52 1026.07 1026.03 1025.89 1025.76 1025.69 1025.65 1025.60 1025.67 1025.80 1025.96
1019.56 1020.12 1020.90 1021.75 1022.23 1023.08 1023.92 1024.35 1024.77 1025.16 1025.63 1026.05 1026.43 1026.82 1026.89 1026.94 1027.16 1027.48 1027.62 1027.81 1027.47 1027.20 1026.96 1026.99 1027.04 1026.86 1026.80 1026.67 1026.45 1026.70 1026.55 1026.18 1026.06 1025.90 1026.01 1025.85 1025.72 1025.49 1025.47 1025.53 1025.49 1025.62 1025.70
1019.02 1019.65 1020.37 1021.08 1021.75 1022.44 1023.09 1023.83 1024.37 1024.90 1025.37 1025.82 1026.23 1026.36 1026.33 1026.49 1026.79 1026.97 1027.23 1027.11 1026.90 1026.51 1026.25 1026.24 1026.34 1026.27 1026.19 1026.12 1025.86 1025.94 1025.90 1025.76 1025.61 1025.51 1025.59 1025.52 1025.42 1025.31 1025.26 1025.33 1025.34 1025.31 1025.35
1018.88 1019.39 1019.69 1020.38 1021.05 1021.80 1022.37 1022.93 1023.59 1024.37 1025.03 1025.21 1025.48 1025.68 1025.77 1026.00 1026.25 1026.50 1026.49 1026.40 1026.39 1026.43 1025.95 1025.74 1025.59 1025.53 1025.36 1025.24 1025.17 1025.14 1025.01 1024.80 1024.82 1024.84 1024.94 1025.10 1025.04 1025.01 1024.93 1024.90 1024.94 1024.96 1025.03
1018.19 1018.78 1019.36 1019.83 1020.48 1021.11 1021.84 1022.59 1023.08 1023.86 1024.50 1024.65 1024.72 1024.96 1025.15 1025.44 1025.48 1025.57 1025.91 1025.76 1025.44 1025.40 1025.34 1025.13 1024.87 1024.75 1024.61 1024.52 1024.39 1024.29 1024.20 1023.98 1023.81 1023.92 1024.03 1024.27 1024.37 1024.33 1024.40 1024.38 1024.41 1024.49 1024.55
Thickness
5633 5631 5627 5623 5620 5611 5604 5592 5587 5582 5576 5570 5563 5558 5554 5547 5540 5534 5526 5517 5510 5505 5499 5494 5488 5484 5477 5472 5467 5463 5458 5452 5457 5465 5454 5450 5446 5440 5436 5424 5411 5402 5395
5623 5620 5615 5611 5604 5596 5586 5580 5575 5569 5564 5558 5554 5549 5541 5534 5526 5519 5512 5506 5499 5494 5488 5483 5476 5471 5465 5461 5455 5450 5445 5437 5434 5442 5435 5432 5422 5417 5412 5406 5394 5379 5370
5610 5607 5602 5596 5591 5584 5573 5568 5562 5557 5552 5546 5542 5537 5529 5521 5514 5507 5500 5493 5486 5481 5475 5470 5464 5459 5452 5445 5439 5433 5428 5423 5416 5414 5416 5407 5402 5394 5394 5383 5370 5364 5351
5596 5591 5587 5581 5576 5569 5560 5555 5549 5542 5536 5532 5527 5522 5516 5509 5500 5492 5486 5480 5474 5469 5463 5456 5451 5445 5438 5431 5423 5417 5413 5407 5400 5394 5391 5386 5376 5371 5357 5353 5364 5343 5336
5580 5575 5570 5566 5560 5555 5549 5543 5536 5529 5523 5519 5513 5507 5500 5493 5487 5480 5474 5467 5460 5455 5448 5443 5436 5430 5424 5417 5411 5403 5397 5393 5386 5378 5370 5364 5353 5348 5335 5328 5319 5318 5311
5564 5559 5556 5555 5550 5543 5537 5530 5523 5515 5511 5507 5501 5494 5486 5481 5475 5469 5462 5456 5450 5445 5438 5432 5425 5418 5411 5404 5397 5388 5380 5374 5367 5359 5351 5343 5336 5322 5314 5299 5291 5284 5295
5554 5547 5544 5541 5535 5528 5522 5515 5506 5501 5497 5491 5486 5481 5475 5469 5464 5456 5450 5443 5436 5431 5426 5420 5414 5407 5400 5393 5384 5374 5364 5354 5347 5339 5332 5321 5313 5302 5292 5283 5268 5253 5247
5546 5540 5534 5530 5524 5516 5509 5501 5492 5487 5481 5475 5470 5466 5461 5454 5449 5442 5438 5430 5423 5418 5413 5407 5402 5395 5387 5380 5373 5364 5353 5340 5332 5324 5314 5306 5294 5283 5269 5257 5248 5237 5231
5534 5528 5522 5518 5510 5502 5494 5485 5478 5473 5465 5460 5457 5452 5446 5441 5435 5431 5425 5418 5412 5406 5400 5395 5389 5382 5374 5368 5362 5352 5343 5331 5318 5309 5300 5291 5280 5267 5255 5242 5228 5215 5218
5527 5520 5510 5503 5497 5489 5480 5471 5465 5458 5452 5446 5442 5436 5433 5427 5422 5418 5413 5405 5397 5393 5388 5382 5375 5370 5363 5355 5345 5339 5332 5320 5310 5300 5289 5276 5264 5252 5239 5226 5214 5206 5196
5515 5505 5495 5488 5481 5473 5463 5455 5449 5443 5438 5431 5427 5421 5416 5412 5406 5403 5400 5394 5385 5377 5372 5368 5361 5354 5346 5338 5329 5320 5311 5306 5295 5286 5275 5262 5251 5238 5225 5214 5206 5199 5191
5498 5488 5479 5471 5462 5454 5446 5438 5433 5428 5421 5418 5412 5406 5401 5396 5392 5389 5386 5382 5373 5366 5361 5357 5349 5342 5336 5328 5320 5310 5300 5289 5280 5270 5256 5244 5235 5225 5213 5206 5200 5195 5191
5483 5472 5462 5453 5445 5437 5431 5424 5418 5413 5410 5403 5397 5391 5386 5383 5379 5374 5370 5367 5361 5355 5350 5342 5336 5330 5321 5313 5304 5297 5287 5276 5265 5257 5245 5232 5220 5212 5205 5200 5195 5191 5188
5470 5458 5448 5440 5431 5424 5419 5413 5407 5401 5396 5390 5384 5378 5372 5366 5362 5360 5356 5353 5347 5341 5333 5325 5320 5314 5306 5299 5292 5283 5272 5261 5251 5239 5229 5218 5209 5201 5194 5191 5187 5186 5182
5459 5446 5436 5429 5421 5413 5406 5402 5395 5390 5388 5381 5374 5366 5358 5351 5350 5348 5344 5339 5333 5326 5320 5312 5304 5294 5287 5280 5273 5267 5257 5248 5237 5228 5218 5207 5199 5191 5186 5183 5180 5177 5173
5443 5432 5424 5416 5408 5401 5395 5386 5382 5378 5375 5371 5366 5357 5350 5345 5340 5336 5330 5325 5318 5312 5306 5296 5283 5275 5269 5264 5260 5254 5242 5234 5225 5214 5204 5195 5188 5182 5177 5175 5174 5169 5165
5436 5423 5412 5404 5397 5390 5384 5378 5369 5361 5358 5354 5349 5343 5337 5332 5326 5321 5316 5308 5299 5293 5279 5269 5263 5258 5255 5252 5246 5239 5230 5221 5213 5202 5191 5183 5176 5171 5168 5167 5167 5165 5160
5422 5412 5404 5395 5387 5379 5370 5364 5357 5351 5343 5335 5330 5326 5321 5315 5309 5305 5299 5287 5275 5268 5258 5250 5245 5242 5240 5237 5231 5224 5216 5209 5201 5191 5182 5171 5163 5159 5157 5157 5158 5154 5152
5404 5396 5390 5381 5372 5364 5355 5346 5338 5332 5326 5318 5310 5307 5303 5299 5293 5285 5279 5266 5255 5247 5241 5235 5232 5229 5225 5220 5214 5208 5201 5194 5186 5176 5166 5158 5151 5146 5145 5145 5146 5146 5145
5387 5380 5372 5364 5353 5343 5335 5327 5320 5313 5306 5299 5291 5285 5282 5275 5266 5259 5253 5246 5238 5233 5229 5224 5222 5217 5211 5205 5198 5192 5184 5177 5169 5161 5150 5144 5142 5136 5135 5134 5134 5134 5131
5367 5358 5352 5342 5336 5327 5320 5313 5307 5298 5290 5281 5277 5272 5269 5259 5251 5242 5236 5231 5228 5225 5221 5215 5210 5204 5198 5192 5185 5178 5169 5161 5153 5147 5136 5133 5131 5127 5126 5125 5124 5121 5119
5344 5337 5329 5323 5315 5308 5301 5295 5288 5280 5273 5267 5260 5254 5256 5244 5235 5228 5224 5221 5219 5218 5214 5207 5200 5193 5186 5177 5170 5162 5154 5148 5137 5132 5124 5121 5120 5119 5118 5117 5115 5113 5110
5322 5315 5307 5297 5295 5286 5280 5273 5267 5261 5253 5247 5241 5234 5228 5224 5220 5216 5213 5210 5208 5205 5200 5194 5187 5181 5175 5167 5161 5151 5142 5135 5126 5120 5112 5109 5108 5108 5108 5106 5106 5103 5100
5303 5297 5291 5284 5276 5270 5263 5253 5247 5241 5236 5230 5223 5218 5216 5211 5206 5203 5200 5198 5195 5193 5189 5182 5175 5168 5162 5155 5149 5140 5132 5123 5113 5107 5101 5098 5096 5097 5096 5094 5094 5093 5092
5281 5277 5274 5267 5262 5254 5247 5239 5232 5225 5219 5215 5210 5206 5202 5198 5193 5190 5188 5186 5182 5176 5172 5168 5163 5157 5151 5144 5137 5129 5121 5112 5103 5097 5092 5088 5086 5085 5084 5084 5083 5083 5082
5267 5261 5256 5252 5245 5238 5230 5222 5217 5209 5203 5200 5197 5192 5188 5184 5182 5180 5176 5174 5172 5165 5159 5155 5151 5145 5140 5134 5126 5118 5109 5101 5096 5089 5084 5080 5077 5076 5074 5074 5073 5073 5072